Location: Wildcat Hills Observatory
(41.6350°N, 103.6812°W)
Time: 05:05:49
(UTC-06:00)

Daily predictions for brighter satellites

Satellite Brightness Start Highest point End
(mag) Time Altitude Azimuth Time Altitude Azimuth Time Altitude Azimuth
Nadezhda 3 Rocket 4.5 00:05:41 40° SW 00:07:37 55° WNW 00:13:52 10° N
Cosmos 1733 4.3 00:04:21 10° N 00:07:01 43° N 00:07:01 43° N
USA 229 DEB 3.8 00:01:35 10° NW 00:08:40 64° WSW 00:09:59 55° SSW
USA 229 3.8 00:01:42 10° NW 00:08:46 65° WSW 00:10:05 55° SSW
Cosmos 1758 Rocket 4.0 00:10:42 58° NW 00:10:42 58° NW 00:14:30 10° N
USA 234 4.3 00:04:50 10° E 00:10:55 43° NNE 00:17:00 10° NW
H-2A R/B 4.4 00:12:39 14° W 00:12:58 15° W 00:15:28 10° WNW
Meteor 2-5 Rocket 4.0 00:13:51 56° ESE 00:14:11 57° E 00:19:59 10° NNE
NOSS 3-1 (A) 4.4 00:07:58 10° NNW 00:15:26 61° NE 00:19:24 32° ESE
Cosmos 494 Rocket 3.9 00:17:24 82° NE 00:17:24 82° NE 00:22:23 10° NNE
Cosmos 1821 Rocket 4.2 00:18:15 10° NNW 00:24:25 59° W 00:25:25 53° SW
Lacrosse 5 rocket 2.7 00:20:48 10° NW 00:25:11 39° NE 00:26:00 36° ENE
CZ-2C R/B 3.0 00:29:30 81° SW 00:29:41 82° WSW 00:35:21 10° NNW
Cosmos 2360 Rocket 3.0 00:29:08 10° NNW 00:34:30 42° ENE 00:35:49 36° E
Cosmos 1980 Rocket 3.5 00:30:40 10° NW 00:35:13 27° W 00:35:13 27° W
Cosmos 1470 4.1 00:32:19 10° NNW 00:35:01 35° NW 00:35:01 35° NW
Cosmos 1727 Rocket 3.9 00:36:07 68° SE 00:36:44 74° E 00:42:59 10° N
Cosmos 1339 Rocket 4.4 00:37:47 67° SE 00:38:28 73° E 00:44:48 10° NNE
ALOS 2 3.2 00:40:12 51° NW 00:40:12 51° NW 00:43:42 10° NNW
ATLAS CENTAUR R/B 2.9 00:37:23 10° NNW 00:39:19 29° NNW 00:39:19 29° NNW
Meteor 1-16 Rocket 4.0 00:38:28 10° N 00:43:53 89° W 00:43:56 88° SSW
Cosmos 972 4.4 00:39:39 10° NNW 00:45:02 85° N 00:45:02 85° N
Cosmos 2322 Rocket 2.2 00:40:00 10° NNW 00:45:35 65° WSW 00:45:35 65° WSW
Cosmos 1605 Rocket 3.8 00:41:00 10° NNW 00:47:05 73° W 00:47:39 68° SW
ARGOS Delta rocket 4.4 00:43:51 10° N 00:49:03 59° WNW 00:49:28 57° W
Cosmos 1707 4.2 00:50:20 33° NW 00:50:20 33° NW 00:52:55 10° N
Cosmos 1302 Rocket 4.1 00:49:58 10° NNW 00:54:53 68° WNW 00:54:53 68° WNW
Cosmos 1153 Rocket 4.3 00:51:40 10° N 00:57:55 87° W 00:58:39 72° S
Meteor 1-24 Rocket 3.7 00:57:47 75° SSE 00:58:15 81° E 01:04:18 10° NNE
Cosmos 2173 Rocket 4.1 00:58:38 10° N 01:04:42 60° E 01:05:39 54° ESE
H-2A R/B 3.9 01:02:01 10° NNE 01:05:02 32° ENE 01:05:02 32° ENE
Meteor 2-15 4.4 01:07:39 61° WSW 01:08:22 66° W 01:14:25 10° N
CZ-2C R/B 3.6 01:05:50 10° N 01:11:00 39° WNW 01:12:02 36° W
Cosmos 2098 Rocket 4.2 01:07:35 10° NNW 01:11:29 41° W 01:11:29 41° W
SeaSat 1 3.8 01:19:50 27° W 01:19:50 27° W 01:22:57 10° NW
Cosmos 2219 Rocket 3.9 01:13:59 10° N 01:18:48 27° NE 01:22:43 14° ESE
USA 267 4.2 01:13:08 10° NE 01:19:17 45° NNW 01:25:24 10° W
Cosmos 1674 4.2 01:23:29 32° NE 01:23:29 32° NE 01:26:04 10° NNE
CZ-4B R/B 3.8 01:29:21 20° NNW 01:29:21 20° NNW 01:30:26 10° NNW
Cosmos 1459 Rocket 3.9 01:22:11 10° N 01:28:35 87° W 01:29:35 66° S
Cosmos 2084 Rocket 4.3 01:33:27 44° NNW 01:33:27 44° NNW 01:36:38 10° NNE
NOSS 3-1 (C) 4.5 01:26:50 10° NW 01:34:01 42° WSW 01:34:45 41° SW
Cosmos 2221 3.0 01:30:33 10° N 01:34:01 57° NNW 01:34:01 57° NNW
Cosmos 2237 Rocket 4.3 01:31:08 10° N 01:35:28 22° NE 01:39:45 10° ESE
SL-16 R/B 3.6 01:31:44 10° NW 01:35:24 24° W 01:35:24 24° W
Landsat 5 4.2 01:38:43 51° WNW 01:38:43 51° WNW 01:42:25 10° NNW
ISS -0.9 01:35:46 10° NNW 01:38:10 18° NNE 01:40:34 10° ENE
Meteor 2-1 Rocket 4.5 01:34:10 10° NNW 01:39:56 56° W 01:40:17 55° WSW
Cosmos 1802 Rocket 3.8 01:34:33 10° N 01:40:51 82° W 01:41:50 65° SSW
Cosmos 1726 3.9 01:38:27 10° NNE 01:41:28 26° ENE 01:41:28 26° ENE
Lacrosse 5 2.8 01:40:43 34° WNW 01:42:10 42° NW 01:47:00 10° NE
Cosmos 1356 Rocket 4.5 01:43:01 37° ENE 01:43:01 37° ENE 01:46:11 10° NNE
Cosmos 2100 Rocket 4.1 01:41:06 10° NNW 01:47:08 58° W 01:47:50 54° WSW
Cosmos 1340 Rocket 3.6 01:49:04 48° NNW 01:49:04 48° NNW 01:52:03 10° N
SL-8 R/B 4.2 01:49:39 51° E 01:49:39 51° E 01:53:24 10° ENE
Cosmos 2016 Rocket 3.9 01:42:32 10° N 01:48:57 85° W 01:50:13 60° S
Meteor 1-21 Rocket 4.2 01:49:45 66° S 01:50:37 83° E 01:56:32 10° NNE
Cosmos 2227 Rocket 3.6 01:51:59 23° ESE 01:53:02 25° ESE 01:57:31 10° NE
USA 234 3.1 01:52:05 51° SSE 01:53:42 68° SW 02:00:14 10° NW
Cosmos 1076 Rocket 3.9 01:59:58 57° NW 01:59:58 57° NW 02:03:47 10° N
Cosmos 2322 4.1 01:54:33 10° NW 01:59:42 47° W 01:59:42 47° W
Cosmos 2061 Rocket 4.2 01:54:10 10° NNW 02:00:11 54° W 02:01:02 50° WSW
Cosmos 2237 4.1 01:56:10 10° NNW 02:01:49 64° WSW 02:02:05 63° SW
Lacrosse 5 rocket 3.6 02:00:13 10° WNW 02:01:39 18° WNW 02:01:39 18° WNW
ATLAS 2AS CENTAUR R/B 3.1 01:58:38 10° NNW 02:06:43 73° NE 02:13:44 12° SE
ATLAS 3B CENTAUR R/B 4.4 01:47:55 10° WSW 02:08:59 43° S 02:17:12 10° ESE
Resurs 1-4 Rocket 4.2 02:07:10 10° NE 02:10:40 18° E 02:13:18 13° SE
Cosmos 2151 4.4 02:10:27 27° ESE 02:10:59 28° E 02:14:36 10° NNE
Cosmos 1328 Rocket 3.7 02:09:18 10° N 02:13:44 64° E 02:14:05 62° ESE
Cosmos 2219 3.1 02:13:01 59° SW 02:14:00 74° WNW 02:19:38 10° NNE
NOSS 3-3 (A) 4.1 02:12:44 50° SSE 02:14:04 62° ESE 02:20:34 10° NE
NOSS 3-3 (C) 4.1 02:12:50 50° SSE 02:14:10 61° ESE 02:20:40 10° NE
Cosmos 2123 Rocket 3.9 02:13:32 54° SSW 02:14:57 74° W 02:21:09 10° N
COSMOS 2428 2.6 02:10:01 10° NNW 02:15:43 67° WSW 02:16:27 60° SSW
Meteor 2-2 Rocket 4.2 02:10:24 10° N 02:16:04 76° E 02:17:40 48° SSE
Cosmos 2360 Rocket 3.4 02:13:32 10° NW 02:17:33 27° W 02:17:33 27° W
Cosmos 2228 Rocket 3.2 02:14:17 10° N 02:18:46 69° E 02:19:14 63° ESE
Cosmos 1151 Rocket 4.0 02:17:47 10° N 02:21:55 41° ENE 02:23:04 34° ESE
Cosmos 2333 4.2 02:18:39 10° NNW 02:24:19 63° WSW 02:25:07 57° SSW
CZ-2D R/B 3.9 02:21:24 10° NE 02:25:31 23° E 02:28:06 16° SE
NOSS 2-1 (E) 4.5 02:26:12 32° ESE 02:26:12 32° ESE 02:29:38 10° NE
Cosmos 2233 Rocket 3.9 02:24:28 10° N 02:30:50 89° ENE 02:33:17 41° S
Cosmos 1954 Rocket 4.0 02:31:10 54° S 02:32:18 72° ESE 02:37:33 10° NNE
Cosmos 407 Rocket 3.6 02:33:00 51° WSW 02:33:56 60° WNW 02:39:03 10° NNE
ARIANE 5 R/B 4.1 02:32:02 10° NE 02:36:17 26° E 02:38:51 18° SE
H-2A R/B 4.3 02:38:07 10° NNW 02:41:17 21° WNW 02:41:40 21° WNW
Cosmos 1725 Rocket 4.4 02:36:37 10° NNW 02:42:36 46° W 02:44:08 39° SW
Cosmos 1703 4.1 02:45:08 38° SE 02:45:53 43° E 02:49:37 10° NNE
Cosmos 2333 Rocket 2.1 02:42:46 10° NNW 02:48:30 77° WSW 02:50:57 35° S
Cosmos 676 Rocket 4.1 02:47:49 47° SW 02:49:11 66° WNW 02:54:28 10° NNE
Helios 1A Rocket 3.7 02:45:42 10° N 02:49:35 38° WNW 02:49:52 38° W
Cosmos 1626 2.8 02:49:52 43° ESE 02:50:27 47° E 02:54:04 10° NNE
SL-14 R/B 3.6 02:54:29 49° W 02:54:38 49° W 02:58:36 10° N
Cosmos 1500 Rocket 3.6 02:58:09 53° SW 02:58:52 62° W 03:03:17 10° N
Cosmos 2297 Rocket 2.3 02:56:55 37° S 02:59:07 69° ESE 03:04:45 10° NNE
Cosmos 1980 3.6 02:55:08 10° NNW 03:00:50 80° WSW 03:04:21 24° SSE
Cosmos 1464 Rocket 4.2 02:55:37 10° N 03:01:46 69° E 03:06:27 18° SSE
Cosmos 2058 2.8 03:01:26 59° SSW 03:02:11 86° W 03:06:20 10° N
Cosmos 2219 Rocket 2.5 02:57:32 10° NW 03:02:58 47° WSW 03:04:22 39° SW
NOSS 0 Rocket 3.9 02:56:56 10° NNW 03:03:03 63° WSW 03:06:23 28° S
IRS-P3 4.2 03:00:30 10° N 03:05:45 62° WNW 03:07:41 38° SW
Spot 4 Rocket 4.2 03:05:37 10° NNE 03:10:45 68° ESE 03:13:21 29° S
COBE Rocket 4.0 03:06:58 10° NNE 03:11:37 64° E 03:13:48 30° S
Cosmos 1805 Rocket 4.1 03:10:36 27° SSE 03:12:47 54° E 03:17:06 10° NNE
ERBS 3.6 03:12:14 28° WNW 03:12:59 32° NW 03:16:04 10° NNE
NOSS 7 (D) 4.2 03:12:47 67° WSW 03:13:08 79° NW 03:16:27 10° NNE
ISS -3.6 03:11:52 10° NW 03:15:08 68° NNE 03:18:23 10° ESE
Cosmos 2208 Rocket 4.2 03:10:40 10° NNW 03:15:52 70° ENE 03:21:05 10° SSE
DELTA 2 R/B (1) 4.0 03:14:17 35° SSW 03:15:56 45° SSE 03:21:12 10° E
Cosmos 1726 4.1 03:14:09 10° NW 03:16:04 17° WNW 03:16:04 17° WNW
Cosmos 1300 4.2 03:14:25 10° NW 03:17:01 22° WNW 03:17:01 22° WNW
Cosmos 1515 Rocket 4.3 03:14:34 10° NNW 03:18:32 33° W 03:18:58 32° WSW
Cosmos 2237 Rocket 2.2 03:14:23 10° NNW 03:19:57 60° WSW 03:23:26 23° S
SL-16 R/B 2.8 03:14:30 10° NNW 03:20:08 59° ENE 03:25:43 10° SE
NPP 4.1 03:17:21 10° N 03:22:32 48° WNW 03:24:51 30° SW
Cosmos 1238 4.4 03:23:56 50° SSW 03:24:42 71° W 03:27:53 10° N
Lacrosse 5 4.4 03:23:10 10° NW 03:26:21 16° NNW 03:29:33 10° NNE
IRS-1D 3.6 03:21:16 10° NNE 03:26:39 86° ESE 03:29:47 26° SSW
SL-16 R/B 2.5 03:26:03 16° S 03:31:03 72° WSW 03:37:15 10° NNW
Lacrosse 4 Rocket 2.7 03:28:51 19° SSE 03:31:04 33° ESE 03:34:50 10° NE
Cosmos 2227 Rocket 2.7 03:33:48 26° WSW 03:36:44 48° WNW 03:42:13 10° NNE
Aureole 2 Rocket 3.6 03:36:12 10° NW 03:39:49 32° WSW 03:40:28 30° WSW
Cosmos 1633 Rocket 3.4 03:38:34 17° S 03:41:48 61° E 03:46:06 10° NNE
MOZ.5/SAFIR/RUBIN 5/SL-8 4.2 03:38:27 10° SSE 03:43:09 64° ENE 03:47:54 10° N
UNK 3.9 03:40:43 24° SSW 03:43:15 52° W 03:47:47 10° NNW
Cosmos 1140 Rocket 4.5 03:41:38 21° WSW 03:44:12 33° WNW 03:48:55 10° N
Sich 1 3.1 03:41:36 21° S 03:44:33 79° E 03:48:56 10° N
CZ-3A R/B 3.7 03:42:05 10° NNW 03:44:37 29° NE 03:51:00 10° ESE
Cosmos 1356 3.9 03:45:57 32° WSW 03:47:02 43° WNW 03:50:26 10° N
CZ-2D R/B 4.0 03:43:09 10° NNE 03:47:07 55° E 03:50:26 15° S
Cosmos 2151 4.4 03:47:03 19° W 03:48:16 22° WNW 03:51:36 10° NNW
Cosmos 1850 Rocket 4.4 03:47:49 24° SW 03:50:44 48° WNW 03:55:45 10° N
Resurs 1-4 Rocket 2.3 03:45:39 10° N 03:50:53 59° WNW 03:54:23 21° SW
ADEOS Rocket 3.8 03:46:25 10° N 03:53:38 58° WNW 03:59:38 17° SW
ADEOS 3.7 03:48:41 10° N 03:53:50 61° WNW 03:57:25 20° SSW
USA 102 4.2 03:53:05 10° NE 03:56:21 48° ESE 03:58:02 22° S
ATLAS 2AS CENTAUR R/B 3.8 03:50:46 10° NW 03:56:58 26° WSW 04:01:00 17° SSW
NOSS 3-4 (A) 4.0 03:51:12 10° NNW 03:58:17 80° NE 04:05:49 10° SE
NOSS 3-4 (C) 4.0 03:51:19 10° NNW 03:58:23 80° NE 04:05:55 10° SE
Cosmos 2034 Rocket 4.2 03:53:03 10° NNW 03:59:16 58° W 04:05:28 10° S
Cosmos 1455 3.0 03:57:07 10° NNW 04:00:37 33° W 04:02:20 22° SW
ADEOS II 3.9 03:56:15 10° NE 04:00:47 29° E 04:05:17 10° SSE
CZ-2D R/B 2.6 04:00:49 10° N 04:05:45 44° WNW 04:09:26 17° SW
Cosmos 371 Rocket 4.1 04:05:02 10° N 04:09:45 54° ENE 04:14:27 10° SE
BREEZE M DEB (TANK) 4.3 04:08:59 11° S 04:10:32 15° SE 04:12:01 10° ESE
Cosmos 1869 3.5 04:06:48 10° NNW 04:10:43 51° W 04:14:19 12° SSW
ARIANE 5 R/B 3.3 04:10:48 10° N 04:15:28 37° WNW 04:19:10 15° SW
Tsikada Rocket 4.2 04:10:21 13° SSW 04:16:00 58° W 04:22:21 10° N
Cosmos 2242 Rocket 3.6 04:12:15 10° N 04:16:45 82° W 04:21:15 10° S
SL-24 R/B 3.9 04:13:54 10° NNE 04:17:50 75° ESE 04:21:30 10° S
Cosmos 1707 Rocket 4.3 04:15:07 10° NNW 04:19:06 34° W 04:22:41 12° SSW
Meteor 2-10 Rocket 4.0 04:17:04 10° N 04:22:02 62° ENE 04:27:01 10° SSE
GPS 2-04 Rocket1 4.1 04:20:18 15° SW 04:22:21 22° SSW 04:25:37 10° SSE
Cosmos 1626 4.4 04:25:01 10° W 04:26:06 11° WNW 04:27:11 10° NW
MOS 1 Rocket 3.7 04:23:36 10° N 04:28:38 59° WNW 04:33:53 10° SSW
PSLV R/B 4.3 04:28:41 10° NNE 04:32:42 62° E 04:36:35 10° S
Cosmos 1862 Rocket 3.5 04:33:33 10° NNW 04:37:54 75° W 04:42:11 10° S
UNKNOWN OBJECT B 4.0 04:36:59 10° N 04:40:28 28° WNW 04:43:53 10° SW
Cosmos 1603 3.7 04:37:08 10° NNW 04:42:53 84° WSW 04:48:33 10° SSE
USA 161 2.2 04:41:52 11° SW 04:43:12 19° W 04:44:42 10° NW
Cosmos 1933 Rocket 3.7 04:39:12 10° SSW 04:43:37 62° W 04:48:03 10° N
Cosmos 2297 Rocket 3.9 04:39:39 10° W 04:43:43 20° NW 04:47:48 10° N
Cosmos 332 Rocket 3.9 04:39:25 10° NNW 04:44:09 55° WSW 04:48:53 10° S
Cosmos 1315 Rocket 4.0 04:42:46 10° SSE 04:46:39 45° E 04:50:29 10° NNE
Cosmos 1486 Rocket 4.0 04:42:22 10° SSW 04:47:33 73° WNW 04:52:47 10° NNE
ISS -2.0 04:49:29 10° W 04:51:15 14° SW 04:53:00 10° SSW
ATLAS 3B CENTAUR R/B 3.9 04:44:55 10° WSW 04:52:36 22° SSW 04:56:41 10° SSE
Cosmos 2285 Rocket 4.1 04:48:02 10° NNW 04:54:21 89° W 05:00:40 10° SSE
BREEZE-M DEB 3.6 04:52:26 10° W 04:55:06 25° NNW 04:56:55 10° NE
